User: anonymous   Login
Location: Unspecified
(0.0000°N, 0.0000°E)
Time: 10:21:03
(UTC+00:00)
Language:

ISS - Orbit

View from above orbital plane
View from above orbital plane
View from above satellite
View from above satellite

Ground track
Ground track

The orbit data is extracted from the following two-line orbital elements,

1 25544U 98067A   19289.02977639 -.00000090  00000-0  64413-5 0  9995
2 25544  51.6425 122.0475 0007138 152.2057 343.3425 15.50196905194006
Epoch (UTC): 16 October 2019 00:42:52
Eccentricity: 0.0007138
inclination: 51.6425°
perigee height: 411 km
apogee height: 421 km
right ascension of ascending node: 122.0475°
argument of perigee: 152.2057°
revolutions per day: 15.50196905
mean anomaly at epoch: 343.3425°
orbit number at epoch: 19400

The dashed part of the orbit path shows where the satellite is in the earth's shadow,  

DLR